Location: ???????
(55.3754°N, 39.3545°E)
Time: 21:33:03
(UTC+00:00)

Cosmos 2082 Rocket - Pass Details

Date: 14 April 2026
Orbit: 831 x 853 km, 71.0° (Epoch: 11 May)

Event Time Altitude Azimuth Distance (km) Brightness Sun altitude
Exits shadow 23:18:16 20° 155° (SSE) 1,849 3.7 -20.6°
Maximum altitude 23:21:12 33° 108° (ESE) 1,408 3.4 -20.4°
Drops below altitude 10° 23:26:15 10° 46° (NE) 2,495 5.8 -20.0°
Sets 23:28:55 0° 37° (NE) 3,435 7.0 -19.8°
